Location: Newark
(13.8117°N, 3.6025°W)
Time: 08:08:00
(UTC+00:00)

Altair - All Passes

Search period start: 22 August 2019 00:00
Search period end: 01 September 2019 00:00
Orbit: 1501 x 1683 km, 47.2° (Epoch: 21 August)

Date Brightness Start Highest point End Pass type
(mag) Time Alt. Az. Time Alt. Az. Time Alt. Az.
22 Aug - 01:01:55 10° SW 01:12:05 83° SE 01:21:56 10° NE visible
22 Aug - 03:09:41 10° W 03:17:23 25° NW 03:24:57 10° NNE visible
22 Aug - 09:37:03 10° NNW 09:44:29 27° NE 09:51:49 10° E daylight
22 Aug - 11:40:21 10° NW 11:49:27 72° SW 11:58:38 10° SSE daylight
22 Aug - 13:51:25 10° WSW 13:53:43 11° SW 13:56:02 10° SW daylight
22 Aug - 22:37:57 10° SSE 22:42:24 14° SE 22:46:48 10° E night (unlit)
23 Aug - 00:36:46 10° SW 00:46:54 75° SE 00:56:44 10° NE visible
23 Aug - 02:43:57 10° W 02:52:05 28° NW 03:00:02 10° NNE visible
23 Aug - 09:12:08 10° NNW 09:19:12 24° NE 09:26:11 10° E daylight
23 Aug - 11:15:09 10° NW 11:24:19 80° SW 11:33:33 10° SE daylight
23 Aug - 13:24:37 10° WSW 13:28:33 13° SW 13:32:32 10° SSW daylight
23 Aug - 22:14:23 10° SE 22:17:11 11° SE 22:19:59 10° ESE night (unlit)
24 Aug - 00:11:40 10° SSW 00:21:42 68° SE 00:31:30 10° NE visible
24 Aug - 02:18:18 10° W 02:26:47 31° NW 02:35:06 10° NNE visible
24 Aug - 08:47:14 10° N 08:53:55 22° NE 09:00:30 10° E daylight
24 Aug - 10:49:58 10° NW 10:59:11 88° SW 11:08:25 10° SE daylight
24 Aug - 12:58:25 10° W 13:03:24 16° SW 13:08:26 10° SSW daylight
24 Aug - 23:46:35 10° SSW 23:56:32 61° SE 00:06:15 10° NE visible
25 Aug - 01:52:42 10° WSW 02:01:30 34° NW 02:10:07 10° NNE visible
25 Aug - 08:22:21 10° N 08:28:36 19° NE 08:34:44 10° ENE daylight
25 Aug - 10:24:50 10° NW 10:34:04 84° NE 10:43:16 10° SE daylight
25 Aug - 12:32:29 10° W 12:38:15 18° SW 12:44:05 10° SSW daylight
25 Aug - 23:21:32 10° SSW 23:31:21 55° SE 23:40:58 10° NE night (unlit)
26 Aug - 01:27:08 10° WSW 01:36:13 38° NW 01:45:07 10° NNE visible
26 Aug - 07:57:31 10° N 08:03:16 18° NE 08:08:55 10° ENE daylight
26 Aug - 09:59:42 10° NW 10:08:55 76° NE 10:18:04 10° SE daylight
26 Aug - 12:06:43 10° W 12:13:07 21° SW 12:19:36 10° S daylight
26 Aug - 22:56:32 10° SSW 23:06:10 49° SE 23:15:38 10° ENE night (unlit)
27 Aug - 01:01:37 10° WSW 01:10:57 42° NW 01:20:06 10° NNE visible
27 Aug - 07:32:43 10° N 07:37:54 16° NNE 07:43:00 10° ENE daylight
27 Aug - 09:34:35 10° NW 09:43:46 68° NE 09:52:51 10° SE daylight
27 Aug - 11:41:03 10° WNW 11:47:59 24° SW 11:54:59 10° S daylight
27 Aug - 22:31:34 10° SSW 22:41:00 44° SE 22:50:16 10° ENE night (unlit)
28 Aug - 00:36:09 10° WSW 00:45:42 46° NW 00:55:04 10° NNE visible
28 Aug - 02:50:02 10° NW 02:52:34 11° NNW 02:55:05 10° NNW visible
28 Aug - 07:07:59 10° N 07:12:31 14° NNE 07:17:00 10° ENE daylight
28 Aug - 09:09:29 10° NNW 09:18:36 61° NE 09:27:36 10° SE daylight
28 Aug - 11:15:28 10° WNW 11:22:51 28° SW 11:30:18 10° S daylight
28 Aug - 22:06:38 10° SSW 22:15:49 39° SE 22:24:52 10° ENE night (unlit)
29 Aug - 00:10:43 10° WSW 00:20:27 51° NW 00:30:02 10° NNE visible
29 Aug - 02:23:21 10° NW 02:27:06 12° NNW 02:30:50 10° N visible
29 Aug - 06:43:22 10° N 06:47:07 13° NNE 06:50:50 10° NE daylight
29 Aug - 08:44:24 10° NNW 08:53:26 55° NE 09:02:19 10° ESE daylight
29 Aug - 10:49:57 10° WNW 10:57:44 32° SW 11:05:34 10° S daylight
29 Aug - 21:41:45 10° S 21:50:38 35° SE 21:59:25 10° ENE night (unlit)
29 Aug - 23:45:20 10° WSW 23:55:13 57° NW 00:04:58 10° NNE visible
30 Aug - 01:56:59 10° WNW 02:01:39 14° NNW 02:06:18 10° N visible
30 Aug - 06:18:56 10° N 06:21:42 11° NNE 06:24:26 10° NE daylight
30 Aug - 08:19:19 10° NNW 08:28:15 50° NE 08:37:00 10° ESE daylight
30 Aug - 10:24:31 10° WNW 10:32:37 36° SW 10:40:45 10° S daylight
30 Aug - 21:16:56 10° S 21:25:28 31° SE 21:33:54 10° ENE visible
30 Aug - 23:19:58 10° SW 23:30:00 63° NW 23:39:52 10° NNE visible
31 Aug - 01:30:47 10° WNW 01:36:14 16° NNW 01:41:37 10° N visible
31 Aug - 05:55:07 10° NNE 05:56:15 10° NNE 05:57:23 10° NNE daylight
31 Aug - 07:54:16 10° NNW 08:03:03 45° NE 08:11:39 10° ESE daylight
31 Aug - 09:59:06 10° WNW 10:07:30 40° SW 10:15:54 10° SSE daylight
31 Aug - 20:52:12 10° S 21:00:17 27° SE 21:08:19 10° ENE visible
31 Aug - 22:54:40 10° SW 23:04:46 69° NW 23:14:45 10° NE night (unlit)
